Verona, Italy

4:34 AM CEST on October 17, 2017 (GMT +0200)
Villafranca Mil

Weather History for LIPX - March, 2014

Change the Weather History Date:

Monday, March 17, 2014

  Actual Average Record
Temperature  
Mean Temperature 51 °F -  
Max Temperature 61 °F 60 °F 77 °F (1997)
Min Temperature 41 °F 42 °F 33 °F (2006)
Degree Days  
Heating Degree Days 14    
Growing Degree Days 1 (Base 50)    
Moisture  
Dew Point 47 °F    
Average Humidity 88    
Maximum Humidity 100    
Minimum Humidity 63    
Precipitation  
Precipitation 0.00 in 0.08 in - ()
Sea Level Pressure  
Sea Level Pressure 30.06 in    
Wind  
Wind Speed 3 mph ()    
Max Wind Speed 9 mph    
Max Gust Speed -    
Visibility 0.8 miles    
Events Fog    
Averages and records for this station are not official NWS values.
T = Trace of Precipitation, MM = Missing Value Source: Averaged Metar Reports

Daily Weather History Graph

Daily Weather History Graph

Search for Another Location

Airport or City:

Trip Planner

Search our weather history database for the weather conditions in past years. The results will help you decide how hot, cold, wet, or windy it might be!

Date:

Astronomy

Mar. 17, 2014 Rise Set
Actual Time 6:25 AM CET 6:24 PM CET
Civil Twilight 5:56 AM CET 6:54 PM CET
Nautical Twilight 5:21 AM CET 7:28 PM CET
Astronomical Twilight 4:46 AM CET 8:04 PM CET
Moon 7:29 PM CET 6:29 AM CET
Length of Visible Light 12h 57m
Length of Day
11h 59m
Waxing Gibbous, 99% of the Moon is Illuminated
Mar 17
Waxing Gibbous
Mar 24
Last Quarter
Mar 30
New
Apr 7
First Quarter
Apr 15
Full

Hourly Weather History & Observations

Time (CET) Temp. Windchill Dew Point Humidity Pressure Visibility Wind Dir Wind Speed Gust Speed Precip Events Conditions
12:15 AM 46.4 °F - 44.6 °F 93% 30.04 in 0.5 mi Calm Calm - N/A Fog Fog
12:45 AM 46.4 °F 45.2 °F 44.6 °F 93% 30.04 in 0.5 mi NNE 3.5 mph - N/A Fog Fog
1:00 AM 47 °F - 45 °F 90% 30.05 in 0 mi NNE 3.5 mph - - Fog Partial Fog
1:15 AM 46.4 °F - 44.6 °F 93% 30.04 in 0.5 mi NNE 2.3 mph - N/A Fog Fog
1:45 AM 46.4 °F 45.2 °F 46.4 °F 100% 30.04 in 0.5 mi North 3.5 mph - N/A Fog Fog
2:15 AM 46.4 °F - 44.6 °F 93% 30.04 in 0.5 mi NNE 2.3 mph - N/A Fog Fog
2:45 AM 46.4 °F 45.2 °F 44.6 °F 93% 30.04 in 0.5 mi North 3.5 mph - N/A Fog Fog
3:15 AM 46.4 °F 42.9 °F 44.6 °F 93% 30.04 in 0.5 mi NNW 6.9 mph - N/A Fog Fog
3:45 AM 44.6 °F - 42.8 °F 93% 30.01 in 0.5 mi Calm Calm - N/A Fog Fog
4:00 AM 45 °F - 43 °F 89% 30.03 in 0 mi Calm Calm - - Fog Partial Fog
4:15 AM 44.6 °F - 42.8 °F 93% 30.01 in 0.5 mi Calm Calm - N/A Fog Fog
4:45 AM 44.6 °F - 42.8 °F 93% 30.01 in 0.5 mi Calm Calm - N/A Fog Fog
5:15 AM 42.8 °F - 42.8 °F 100% 30.01 in 0.3 mi North 1.2 mph - N/A Fog Fog
5:45 AM 42.8 °F - 42.8 °F 100% 30.04 in 0.1 mi NNW 1.2 mph - N/A Fog Fog
6:15 AM 44.6 °F - 44.6 °F 100% 30.04 in - Calm Calm - N/A Fog Fog
6:45 AM 44.6 °F - 42.8 °F 93% 30.04 in - Calm Calm - N/A Fog Fog
7:00 AM 44 °F - 44 °F 98% 30.06 in 0 mi Calm Calm - - Fog Heavy Fog
7:15 AM 44.6 °F 43.1 °F 42.8 °F 93% 30.04 in - NNE 3.5 mph - N/A Fog Fog
7:45 AM 42.8 °F - 42.8 °F 100% 30.04 in - NW 1.2 mph - N/A Fog Fog
8:15 AM 42.8 °F - 42.8 °F 100% 30.06 in 0.0 mi South 2.3 mph - N/A Fog Fog
8:45 AM 44.6 °F 41.4 °F 42.8 °F 93% 30.06 in 0.0 mi SSE 5.8 mph - N/A Fog Fog
9:15 AM 44.6 °F 43.1 °F 42.8 °F 93% 30.09 in 0.0 mi East 3.5 mph - N/A Fog Fog
9:45 AM 46.4 °F 45.2 °F 44.6 °F 93% 30.09 in 0.0 mi East 3.5 mph - N/A Fog Fog
10:00 AM 46 °F - 45 °F 95% 30.11 in 0 mi East 3.5 mph - - Fog Partial Fog
10:15 AM 48.2 °F - 46.4 °F 93% 30.09 in 0.0 mi ENE 3.5 mph - N/A Fog Fog
10:45 AM 50.0 °F - 48.2 °F 94% 30.09 in 0.1 mi ESE 5.8 mph - N/A Fog Fog
11:15 AM 50.0 °F - 48.2 °F 94% 30.09 in 0.2 mi East 4.6 mph - N/A Fog Fog
11:45 AM 50.0 °F - 48.2 °F 94% 30.09 in 0.4 mi East 4.6 mph - N/A Fog Fog
12:15 PM 50.0 °F - 48.2 °F 94% 30.09 in 0.6 mi East 5.8 mph - N/A Fog Fog
12:45 PM 51.8 °F - 48.2 °F 88% 30.09 in 0.7 mi East 8.1 mph - N/A   Mostly Cloudy
1:00 PM 52 °F - 48 °F 82% 30.11 in 1 mi East 8.1 mph - - Fog Light Fog
1:15 PM 53.6 °F - 48.2 °F 82% 30.09 in 0.9 mi East 6.9 mph - N/A   Mostly Cloudy
1:45 PM 57.2 °F - 50.0 °F 77% 30.09 in 1.2 mi East 9.2 mph - N/A   Scattered Clouds
2:15 PM 59.0 °F - 50.0 °F 72% 30.06 in 1.6 mi East 8.1 mph - N/A   Mist
2:45 PM 60.8 °F - 51.8 °F 72% 30.06 in 1.9 mi ESE 8.1 mph - N/A   Mist
3:15 PM 60.8 °F - 51.8 °F 72% 30.06 in 1.9 mi ESE 6.9 mph - N/A   Mist
3:45 PM 59.0 °F - 50.0 °F 72% 30.06 in 2.5 mi ESE 8.1 mph - N/A   Mist
4:00 PM 60 °F - 51 °F 63% 30.08 in 2 mi ESE 8.1 mph - -   Mist
4:15 PM 59.0 °F - 50.0 °F 72% 30.06 in 2.5 mi ESE 8.1 mph - N/A   Mist
4:45 PM 59.0 °F - 50.0 °F 72% 30.06 in 2.5 mi ESE 8.1 mph - N/A   Mist
5:15 PM 59.0 °F - 50.0 °F 72% 30.06 in 2.5 mi ESE 5.8 mph - N/A   Mist
5:45 PM 57.2 °F - 50.0 °F 77% 30.06 in 1.9 mi East 5.8 mph - N/A   Mist
6:15 PM 57.2 °F - 50.0 °F 77% 30.06 in 1.6 mi East 4.6 mph - N/A   Mist
6:45 PM 55.4 °F - 50.0 °F 82% 30.06 in 1.2 mi East 4.6 mph - N/A   Mist
7:00 PM 56 °F - 50 °F 75% 30.09 in 1 mi East 4.6 mph - -   Mist
7:15 PM 53.6 °F - 50.0 °F 88% 30.06 in 1.2 mi NE 4.6 mph - N/A   Mist
7:45 PM 53.6 °F - 50.0 °F 88% 30.06 in 1.2 mi NE 3.5 mph - N/A   Mist
8:15 PM 51.8 °F - 50.0 °F 94% 30.09 in 1.2 mi North 4.6 mph - N/A   Mist
8:45 PM 51.8 °F - 50.0 °F 94% 30.09 in 0.9 mi North 6.9 mph - N/A   Mist
9:15 PM 51.8 °F - 48.2 °F 88% 30.09 in - North 2.3 mph - N/A Fog Fog
9:45 PM 51.8 °F - 48.2 °F 88% 30.09 in - North 1.2 mph - N/A Fog Fog
10:00 PM 51 °F - 48 °F 87% 30.11 in 0 mi North 1.2 mph - - Fog Partial Fog
10:15 PM 50.0 °F - 48.2 °F 94% 30.09 in 0.2 mi NNW 2.3 mph - N/A Fog Fog
10:45 PM 50.0 °F - 48.2 °F 94% 30.09 in 0.4 mi NNW 2.3 mph - N/A Fog Fog
11:15 PM 46.4 °F - 44.6 °F 93% 30.09 in 0.1 mi Calm Calm - N/A Fog Fog
11:45 PM 48.2 °F - 46.4 °F 93% 30.09 in 0.2 mi Calm Calm - N/A Fog Fog